Weather History for Gustavus, AK

Change the Weather History Date:

Monday, October 21, 2013

  Actual Average Record
Temperature  
Mean Temperature 42 °F -  
Max Temperature 51 °F 46 °F 55 °F (1960)
Min Temperature 32 °F 34 °F 21 °F (1951)
Degree Days  
Heating Degree Days 24    
Moisture  
Dew Point 39 °F    
Average Humidity 88    
Maximum Humidity 100    
Minimum Humidity 62    
Precipitation  
Precipitation 0.00 in - - ()
Sea Level Pressure  
Sea Level Pressure 30.16 in    
Wind  
Wind Speed 2 mph (NW)    
Max Wind Speed 7 mph    
Max Gust Speed -    
Visibility 8 miles    
Events      
Averages and records for this station are not official NWS values.
T = Trace of Precipitation, MM = Missing Value Source: NWS Daily Summary

Daily Weather History Graph

Daily Weather History Graph

Search for Another Location

Airport:

Trip Planner

Search our weather history database for the weather conditions in past years. The results will help you decide how hot, cold, wet, or windy it might be!

Date:

Astronomy

Oct. 21, 2013 Rise Set
Actual Time 7:53 AM AKDT 5:39 PM AKDT
Civil Twilight 7:12 AM AKDT 6:20 PM AKDT
Nautical Twilight 6:26 AM AKDT 7:07 PM AKDT
Astronomical Twilight 5:40 AM AKDT 7:52 PM AKDT
Moon 7:03 PM AKDT (10/21) 11:10 AM AKDT (10/21)
Length of Visible Light 11h 08m
Length of Day
9h 46m
Waning Gibbous, 92% of the Moon is Illuminated
Oct 21
Waning Gibbous
Oct 26
Last Quarter
Nov 3
New
Nov 9
First Quarter
Nov 17
Full

Hourly Weather History & Observations

Time (AKDT) Temp. Windchill Dew Point Humidity Pressure Visibility Wind Dir Wind Speed Gust Speed Precip Events Conditions
12:16 AM 48.2 °F - 41.0 °F 76% 30.11 in 10.0 mi Calm Calm - N/A   Partly Cloudy
12:36 AM 46.4 °F - 42.8 °F 87% 30.12 in 10.0 mi Calm Calm - N/A   Mostly Cloudy
12:56 AM 46.4 °F - 42.8 °F 87% 30.12 in 10.0 mi Calm Calm - N/A   Overcast
1:16 AM 48.2 °F - 41.0 °F 76% 30.12 in 10.0 mi East 6.9 mph - N/A   Overcast
1:36 AM 48.2 °F - 41.0 °F 76% 30.13 in 10.0 mi Calm Calm - N/A   Overcast
1:56 AM 48.2 °F - 41.0 °F 76% 30.12 in 10.0 mi SE 4.6 mph - N/A   Mostly Cloudy
2:16 AM 48.2 °F - 41.0 °F 76% 30.12 in 10.0 mi SSE 4.6 mph - N/A   Scattered Clouds
2:36 AM 46.4 °F 44.3 °F 41.0 °F 81% 30.12 in 10.0 mi SSW 4.6 mph - N/A   Clear
2:56 AM 46.4 °F - 42.8 °F 87% 30.13 in 10.0 mi Calm Calm - N/A   Clear
3:16 AM 44.6 °F - 42.8 °F 93% 30.13 in 10.0 mi Calm Calm - N/A   Clear
3:36 AM 44.6 °F 43.1 °F 42.8 °F 93% 30.13 in 10.0 mi ESE 3.5 mph - N/A   Scattered Clouds
3:56 AM 44.6 °F - 42.8 °F 93% 30.13 in 10.0 mi Calm Calm - N/A   Mostly Cloudy
4:16 AM 44.6 °F - 42.8 °F 93% 30.13 in 10.0 mi Calm Calm - N/A   Overcast
4:36 AM 44.6 °F - 42.8 °F 93% 30.12 in 10.0 mi Calm Calm - N/A   Mostly Cloudy
4:56 AM 42.8 °F - 42.8 °F 100% 30.12 in 10.0 mi Calm Calm - N/A   Scattered Clouds
5:16 AM 42.8 °F - 41.0 °F 93% 30.12 in 7.0 mi Calm Calm - N/A   Clear
5:36 AM 42.8 °F - 41.0 °F 93% 30.12 in 10.0 mi Calm Calm - N/A   Clear
5:56 AM 42.8 °F - 39.2 °F 87% 30.13 in 3.0 mi Calm Calm - N/A   Clear
6:16 AM 41.0 °F - 39.2 °F 93% 30.12 in 0.5 mi Calm Calm - N/A   Unknown
6:36 AM 39.2 °F - 37.4 °F 93% 30.13 in 0.5 mi Calm Calm - N/A   Mostly Cloudy
6:56 AM 37.4 °F - 37.4 °F 100% 30.13 in 1.2 mi Calm Calm - N/A   Overcast
7:16 AM 37.4 °F - 37.4 °F 100% 30.14 in 1.0 mi Calm Calm - N/A   Overcast
7:36 AM 37.4 °F - 35.6 °F 93% 30.14 in 0.8 mi Calm Calm - N/A   Overcast
7:56 AM 37.4 °F - 35.6 °F 93% 30.14 in 1.0 mi Calm Calm - N/A   Mostly Cloudy
8:36 AM 35.6 °F - 35.6 °F 100% 30.14 in 10.0 mi Calm Calm - N/A   Partly Cloudy
8:56 AM 37.4 °F - 35.6 °F 93% 30.15 in 1.8 mi Calm Calm - N/A   Clear
9:16 AM 35.6 °F - 33.8 °F 93% 30.15 in 2.0 mi Calm Calm - N/A   Scattered Clouds
9:36 AM 37.4 °F - 37.4 °F 100% 30.15 in 1.8 mi Calm Calm - N/A   Scattered Clouds
9:56 AM 39.2 °F - 37.4 °F 93% 30.16 in 3.0 mi Calm Calm - N/A   Clear
10:16 AM 42.8 °F - 41.0 °F 93% 30.16 in 10.0 mi Calm Calm - N/A   Clear
10:36 AM 44.6 °F - 44.6 °F 100% 30.16 in 10.0 mi Calm Calm - N/A   Mostly Cloudy
10:56 AM 46.4 °F - 44.6 °F 93% 30.16 in 10.0 mi Calm Calm - N/A   Mostly Cloudy
11:16 AM 48.2 °F - 44.6 °F 87% 30.16 in 10.0 mi NNW 3.5 mph - N/A   Mostly Cloudy
11:36 AM 46.4 °F 43.5 °F 42.8 °F 87% 30.17 in 10.0 mi NNW 5.8 mph - N/A   Mostly Cloudy
11:56 AM 46.4 °F 44.3 °F 42.8 °F 87% 30.17 in 10.0 mi NNW 4.6 mph - N/A   Mostly Cloudy
12:16 PM 48.2 °F - 44.6 °F 87% 30.16 in 10.0 mi WNW 3.5 mph - N/A   Scattered Clouds
12:36 PM 48.2 °F - 44.6 °F 87% 30.17 in 10.0 mi WNW 3.5 mph - N/A   Partly Cloudy
12:56 PM 48.2 °F - 44.6 °F 87% 30.16 in 10.0 mi WNW 4.6 mph - N/A   Clear
1:16 PM 50.0 °F - 42.8 °F 76% 30.17 in 10.0 mi NNW 3.5 mph - N/A   Clear
1:36 PM 50.0 °F - 42.8 °F 76% 30.17 in 10.0 mi NNW 4.6 mph - N/A   Scattered Clouds
1:56 PM 51.8 °F - 39.2 °F 62% 30.17 in 10.0 mi WNW 3.5 mph - N/A   Scattered Clouds
2:16 PM 51.8 °F - 41.0 °F 67% 30.17 in 10.0 mi West 5.8 mph - N/A   Clear
2:36 PM 50.0 °F - 42.8 °F 76% 30.16 in 10.0 mi WSW 4.6 mph - N/A   Clear
2:56 PM 50.0 °F - 39.2 °F 66% 30.16 in 10.0 mi WNW 3.5 mph - N/A   Clear
3:16 PM 51.8 °F - 41.0 °F 67% 30.16 in 10.0 mi WNW 5.8 mph - N/A   Clear
3:36 PM 50.0 °F - 41.0 °F 71% 30.16 in 10.0 mi West 3.5 mph - N/A   Clear
3:56 PM 50.0 °F - 41.0 °F 71% 30.16 in 10.0 mi West 4.6 mph - N/A   Clear
4:16 PM 50.0 °F - 39.2 °F 66% 30.17 in 10.0 mi WNW 5.8 mph - N/A   Clear
4:36 PM 48.2 °F - 39.2 °F 71% 30.18 in 10.0 mi Calm Calm - N/A   Clear
4:56 PM 48.2 °F - 41.0 °F 76% 30.18 in 10.0 mi NW 3.5 mph - N/A   Clear
5:16 PM 46.4 °F 44.3 °F 41.0 °F 81% 30.18 in 10.0 mi NW 4.6 mph - N/A   Clear
5:36 PM 44.6 °F 43.1 °F 41.0 °F 87% 30.18 in 10.0 mi NW 3.5 mph - N/A   Clear
5:56 PM 42.8 °F - 41.0 °F 93% 30.19 in 10.0 mi Calm Calm - N/A   Clear
6:16 PM 41.0 °F 39.0 °F 39.2 °F 93% 30.19 in 10.0 mi NNW 3.5 mph - N/A   Clear
6:36 PM 41.0 °F - 39.2 °F 93% 30.19 in 10.0 mi Calm Calm - N/A   Clear
6:56 PM 39.2 °F 37.0 °F 37.4 °F 93% 30.19 in 3.0 mi NNW 3.5 mph - N/A   Clear
7:16 PM 39.2 °F - 37.4 °F 93% 30.19 in 10.0 mi Calm Calm - N/A   Clear
7:36 PM 39.2 °F - 37.4 °F 93% 30.20 in 10.0 mi Calm Calm - N/A   Clear
7:56 PM 37.4 °F - 37.4 °F 100% 30.20 in 5.0 mi Calm Calm - N/A   Clear
8:16 PM 37.4 °F - 35.6 °F 93% 30.20 in 1.8 mi Calm Calm - N/A   Clear
8:36 PM 35.6 °F - 35.6 °F 100% 30.20 in 5.0 mi Calm Calm - N/A   Clear
8:56 PM 35.6 °F - 35.6 °F 100% 30.21 in 5.0 mi Calm Calm - N/A   Partly Cloudy
9:16 PM 35.6 °F 32.8 °F 35.6 °F 100% 30.21 in 1.2 mi NNW 3.5 mph - N/A   Scattered Clouds
9:36 PM 33.8 °F - 33.8 °F 100% 30.22 in 4.0 mi Calm Calm - N/A   Partly Cloudy
9:56 PM 33.8 °F - 32.0 °F 93% 30.23 in 2.5 mi Calm Calm - N/A   Scattered Clouds
10:16 PM 33.8 °F - 32.0 °F 93% 30.23 in 3.0 mi Calm Calm - N/A   Partly Cloudy
10:36 PM 33.8 °F 30.8 °F 32.0 °F 93% 30.23 in 10.0 mi North 3.5 mph - N/A   Scattered Clouds
10:56 PM 32.0 °F 28.7 °F 30.2 °F 93% 30.23 in 5.0 mi NNW 3.5 mph - N/A   Partly Cloudy
11:16 PM 32.0 °F - 30.2 °F 93% 30.23 in 10.0 mi Calm Calm - N/A   Clear
11:36 PM 32.0 °F - 30.2 °F 93% 30.23 in 10.0 mi Calm Calm - N/A   Clear
11:56 PM 32.0 °F - 30.2 °F 93% 30.23 in 10.0 mi Calm Calm - N/A   Clear